Terminal Aerodrome Forecast
Issued by NWS

Home | Current Version | Previous Version | Text Only | Print | Product List | Glossary Off
Versions: 1 2 3 4 5 6 7 8 9 10 11 12 13 14

000
FTUS43 KABR 212035 AAA
TAFATY
TAF AMD
KATY 212035Z 2121/2218 32012KT P6SM SKC
     FM220100 31006KT P6SM FEW200
     FM220900 VRB04KT P6SM FEW250
     FM221600 18013KT P6SM BKN060=

USA.gov is the U.S. government's official web portal to all federal, state and local government web resources and services.